Location: Tr�vern
(48.0333°N, 4.6000°W)
Time: 17:52:09
(UTC+00:00)

Cosmos 676 Rocket - Pass Details

Date: 14 July 2020
Orbit: 753 x 785 km, 74.0° (Epoch: 13 August)

Event Time Altitude Azimuth Distance (km) Brightness Sun altitude
Exits shadow 02:56:59 17° 211° (SSW) 1,850 5.3 -12.4°
Maximum altitude 03:01:01 73° 294° (WNW) 811 4.1 -12.0°
Drops below altitude 10° 03:06:20 10° 20° (NNE) 2,340 7.8 -11.5°
Sets 03:08:45 0° 22° (NNE) 3,276 8.9 -11.2°
